NOAA 16 DEB, 41280

Orbit data source: Space-Track

NOAA 16 DEB, 41280 is space debris in SSO originally from a launch on Thu, 21 Sep 2000 UTC launched from the Air Force Western Test Range (AFWTR). Debris objects in space refer to the collection of defunct objects orbiting the Earth. Examples of debris include non-operational satellites, rocket bodies, and fragments generated from explosions, collisions, or faulty payload assembly.

Loading next visibility...
Identifier
41280, 2000-055GG
Orbit
SSO
Country
Flag of USUS
Related business
Manufacturer
Unknown
Mission
Spacecraft
Bus & Motor
Unknown
Mass
Unknown
Launch date (UTC)
2000-09-21 (26 years ago)
Launch vehicle
Unknown
Launch site
Air Force Western Test Range (AFWTR)
Object type
Payload
Rocket body
Debris
Shape & HBR
Unknown shape, 0.1 m
Radar Cross Section
Medium (>0.1 m² and <1 m²)

Expand to show TLE details & history
Last TLE update: 1 week ago

TLE from 1 week ago
0 NOAA 16 DEB
1 41280U 00055GG  26152.22744285  .00003486  00000-0  16025-2 0  9992
2 41280  98.6635 155.5199 0025423 237.4178 122.4545 14.21638468536995
Epoch: 2026-06-01T05:27Z
TLE epoch observation values (Epoch: 2026-06-01T05:27:31.062Z)
Latitude
0.00004°
Longitude
-176.07732°
Altitude
832.59 km
Speed
7.432 km/s
True Right ascension
10h 22m 04s
True Declination
0° 00' 00"
Sunlit
Object was in daylight at epoch
Visualization orbit readout
Latitude
Unknown
Longitude
Unknown
Altitude
Unknown
Speed
Unknown
Apparent Right ascension
Unknown
Apparent Declination
Unknown
Sunlit
N/A
Visualization observer readout
Local Sidereal Time
18:52:17
Azimuth
Unknown
Elevation
Unknown
Doppler factor
Unknown
Orbital elements
Apogee altitude
835.263 km
Perigee altitude
798.679 km
Semi-major axis
7,195.108 km
Eccentricity
0.00254
Inclination
98.6635°
RAAN
155.5199°
Arg. of periapsis
237.4178°
True anomaly
122.69991°
Mean anomaly
122.4545°
Eccentric anomaly
122.57725°
Mean motion
3.55621 °/min
Orbital period
101.23 mins
BSTAR
0.0016025
Loading maneuver chart data...
Computing Atmospheric mass density...
Loading historical data...
Loading historical data...
Loading historical data...
Loading historical data...
Loading historical data...
Loading historical data...
Loading historical data...

Documentation

Showing up to 5 results
|